TimePDT,TemperatureF,Dew PointF,Humidity,Sea Level PressureIn,VisibilityMPH,Wind Direction,Wind SpeedMPH,Gust SpeedMPH,PrecipitationIn,Events,Conditions,WindDirDegrees,DateUTC
12:53 AM,53.1,50.0,89,30.07,10.0,Calm,Calm,-,N/A,,Mostly Cloudy,0,2013-06-21 07:53:00
1:53 AM,53.1,48.0,83,30.07,10.0,Calm,Calm,-,N/A,,Overcast,0,2013-06-21 08:53:00
2:53 AM,53.1,48.0,83,30.07,10.0,Calm,Calm,-,N/A,,Mostly Cloudy,0,2013-06-21 09:53:00
3:53 AM,51.1,46.0,83,30.06,10.0,West,3.5,-,N/A,,Scattered Clouds,280,2013-06-21 10:53:00
4:53 AM,50.0,46.0,86,30.06,10.0,Calm,Calm,-,N/A,,Overcast,0,2013-06-21 11:53:00
5:53 AM,51.1,46.9,86,30.07,10.0,SW,3.5,-,N/A,,Overcast,230,2013-06-21 12:53:00
6:53 AM,54.0,48.9,83,30.09,10.0,Calm,Calm,-,N/A,,Overcast,0,2013-06-21 13:53:00
7:53 AM,57.9,48.0,70,30.09,10.0,Calm,Calm,-,N/A,,Overcast,0,2013-06-21 14:53:00
8:53 AM,60.1,48.0,64,30.10,10.0,Calm,Calm,-,N/A,,Mostly Cloudy,0,2013-06-21 15:53:00
9:53 AM,62.1,46.9,58,30.09,10.0,Calm,Calm,-,N/A,,Overcast,0,2013-06-21 16:53:00
10:53 AM,64.9,46.9,52,30.09,10.0,Calm,Calm,-,N/A,,Mostly Cloudy,0,2013-06-21 17:53:00
11:53 AM,66.0,46.0,48,30.09,10.0,ESE,4.6,-,N/A,,Mostly Cloudy,120,2013-06-21 18:53:00
12:53 PM,68.0,46.0,45,30.09,10.0,South,4.6,-,N/A,,Mostly Cloudy,190,2013-06-21 19:53:00
1:53 PM,71.1,46.0,41,30.08,10.0,Variable,5.8,-,N/A,,Mostly Cloudy,0,2013-06-21 20:53:00
2:53 PM,70.0,45.0,41,30.08,10.0,WNW,4.6,-,N/A,,Overcast,290,2013-06-21 21:53:00
3:53 PM,70.0,44.1,39,30.08,10.0,North,3.5,-,N/A,,Overcast,10,2013-06-21 22:53:00
4:53 PM,71.1,44.1,38,30.08,10.0,Calm,Calm,-,N/A,,Mostly Cloudy,0,2013-06-21 23:53:00
5:53 PM,72.0,44.1,37,30.06,10.0,NE,4.6,-,N/A,,Mostly Cloudy,40,2013-06-22 00:53:00
6:53 PM,72.0,44.1,37,30.06,10.0,Calm,Calm,-,N/A,,Mostly Cloudy,0,2013-06-22 01:53:00
7:53 PM,68.0,48.9,50,30.07,10.0,East,5.8,-,N/A,,Mostly Cloudy,90,2013-06-22 02:53:00
8:53 PM,66.9,48.0,51,30.07,10.0,SE,3.5,-,N/A,,Overcast,130,2013-06-22 03:53:00
9:53 PM,64.9,48.9,56,30.08,10.0,East,4.6,-,N/A,,Overcast,100,2013-06-22 04:53:00
10:53 PM,61.0,48.9,64,30.09,10.0,Calm,Calm,-,N/A,,Clear,0,2013-06-22 05:53:00
11:53 PM,57.9,50.0,75,30.09,10.0,WSW,3.5,-,N/A,,Overcast,240,2013-06-22 06:53:00